Location: Westport
(46.8903°N, 124.1043°W)
Time: 01:17:55
(UTC+00:00)

ISS - Visible Passes

Search period start: 19 August 2022 00:00
Search period end: 29 August 2022 00:00
Orbit: 412 x 420 km, 51.6° (Epoch: 18 August)

Date Brightness Start Highest point End Pass type
(mag) Time Alt. Az. Time Alt. Az. Time Alt. Az.
22 Aug -1.2 12:49:01 10° S 12:51:05 15° SE 12:53:09 10° E visible
24 Aug -2.5 12:47:09 10° SSW 12:50:14 35° SE 12:53:20 10° ENE visible
25 Aug -1.9 11:59:53 15° S 12:01:43 22° SE 12:04:26 10° E visible
26 Aug -1.3 11:13:17 14° SE 11:13:17 14° SE 11:15:09 10° E visible
26 Aug -3.7 12:46:11 10° WSW 12:49:31 79° SSE 12:52:53 10° ENE visible
27 Aug -3.3 11:59:31 29° SSW 12:00:53 51° SSE 12:04:10 10° ENE visible
28 Aug -2.4 11:12:48 31° ESE 11:12:48 31° ESE 11:15:21 10° ENE visible
28 Aug -3.3 12:45:41 10° W 12:48:56 56° NNW 12:52:14 10° ENE visible
